Regional Weather Roundup
Issued by NWS Upton, NY

Current Version | Previous Version | Text Only | Print | Product List | Glossary Off
Versions: 1 2 3 4 5 6 7 8 9 10 11 12 13 14 15 16 17 18 19 20 21 22 23 24 25 26 27

000
ASUS41 KOKX 240305
RWROKX

REGIONAL WEATHER ROUNDUP
NATIONAL WEATHER SERVICE NEW YORK NY
1100 PM EDT THU OCT 23 2014

NOTE: "FAIR" INDICATES FEW OR NO CLOUDS BELOW 12,000 FEET WITH NO
SIGNIFICANT WEATHER AND/OR OBSTRUCTIONS TO VISIBILITY.

NYZ071-072-176-178-NJZ106-104-240400-
NEW YORK CITY METRO AREA


CITY           SKY/WX    TMP DP  RH WIND       PRES   REMARKS
CENTRAL PARK   CLOUDY    53  45  74 VRB5      29.81S
LAGUARDIA APRT CLOUDY    53  47  79 NW9       29.77S
KENNEDY INTL   LGT RAIN  53  47  79 NW12      29.78S
NEWARK/LIBERTY MOCLDY    53  44  71 NW12      29.78F
BRNX BOT. GARD   N/A     52  45  76 NW9       29.80R
TETERBORO      CLOUDY    53  43  68 NW10G17   29.78S
$$

NYZ177-179-078>081-240400-
LONG ISLAND NEW YORK

CITY           SKY/WX    TMP DP  RH WIND       PRES   REMARKS
FARMINGDALE    CLOUDY    51  46  83 N12G22    29.74F
ISLIP          CLOUDY    51  47  86 N17G26    29.70S
SHIRLEY        CLOUDY    50  47  89 NW15      29.71S
WESTHAMPTON    CLOUDY    53  50  89 NW17      29.69S
MONTAUK POINT    N/A     55  50  83 N17G28    29.65R
$$

NYZ052-065-067-240400-
HUDSON VALLEY

CITY           SKY/WX    TMP DP  RH WIND       PRES   REMARKS
WHITE PLAINS   MOCLDY    50  44  80 NW15      29.76R
NEWBURGH       NOT AVBL
MONTGOMERY     LGT RAIN  49  48  97 W3        29.80S
POUGHKEEPSIE   CLOUDY    51  45  79 N9        29.80S
ALBANY         CLOUDY    48  45  89 N5        29.84F
$$

NJZ001-105-106-008-010-013-015-019>022-104-240400-
NEW JERSEY

CITY           SKY/WX    TMP DP  RH WIND       PRES   REMARKS
NEWARK/LIBERTY MOCLDY    53  44  71 NW12      29.78F
TETERBORO      CLOUDY    53  43  68 NW10G17   29.78S
CALDWELL       CLOUDY    52  42  69 NW5       29.81R
MORRISTOWN     CLOUDY    54  43  66 NW13G20   29.79F
SOMERVILLE     CLOUDY    53  43  68 NW6G18    29.80S
SUSSEX         CLOUDY    53  42  66 VRB7G17   29.82S
ANDOVER          N/A     50  43  77 N8        29.82F
TRENTON        CLOUDY    52  42  69 NW13G20   29.81S
MILLVILLE      MOCLDY    53  44  71 NW8       29.83S
ATLANTIC CITY  PTCLDY    51  44  77 NW15      29.80S
WRIGHTSTOWN    MOCLDY    52  44  74 NW13      29.79S
TOMS RIVER     CLOUDY    52  45  76 NW8       29.80S
BELMAR         CLOUDY    52  43  71 NW12      29.78S
$$

PAZ047>061-062-071-240400-
EASTERN PENNSYLVANIA

CITY           SKY/WX    TMP DP  RH WIND       PRES   REMARKS
PHILADELPHIA   CLOUDY    55  43  63 NW9G20    29.85S
ALLENTOWN      CLOUDY    53  43  68 NW12      29.85F
SCRANTON       LGT RAIN  49  45  86 N13G21    29.89F
$$

CTZ002-004>006-009-010-012-RIZ004-006-007-MAZ004-011-015-240400-
SOUTHERN NEW ENGLAND
 IN CT

CITY           SKY/WX    TMP DP  RH WIND       PRES   REMARKS
BRADLEY INTL   CLOUDY    53  46  77 N7        29.72S
HARTFORD       CLOUDY    53  46  77 VRB7      29.71F
DANBURY        CLOUDY    49  41  74 MISG      29.77R
WTRBRY/OXFORD  CLOUDY    46  41  81 N12       29.73S
BRIDGEPORT     CLOUDY    50  45  83 NW10      29.72R
MERIDEN        CLOUDY    50  45  83 NW7       29.71F
NEW HAVEN      CLOUDY    54  45  71 NW9       29.70R
CHESTER        CLOUDY    50  46  87 N13G26    29.68S
GROTON         MOCLDY    51  49  92 N15G26    29.64S
WILLIMANTIC    CLOUDY    52  48  86 N10       29.69R

 IN RI

CITY           SKY/WX    TMP DP  RH WIND       PRES   REMARKS
PROVIDENCE     CLOUDY    52  49  89 N17       29.65S
BLOCK ISLAND   CLOUDY    54  48  82 N18G29    29.62R
WESTERLY       MOCLDY    53  48  83 N15G22    29.64R

 IN MA

CITY           SKY/WX    TMP DP  RH WIND       PRES   REMARKS
BOSTON         DRIZZLE   50  49  96 N18G28    29.66S
WORCESTER      LGT RAIN  48  46  93 N15G26    29.69R FOG
WESTFIELD      CLOUDY    52  46  80 N5        29.73S
PROVINCETOWN   CLOUDY    54   1  12 N22G28    29.58S
NANTUCKET      LGT RAIN  58  57  97 N20G25    29.51S FOG
$$

ANZ330-335-338-340-345-350-353-355-240400-
COASTAL MARINE OBSERVATIONS


STATION/POSITION TIME  SKY/WX   TEMP    WIND        PRES    VSBY  WAVE
                                AIR SEA DIR/SP/G                  HT/PER
                 (UTC)          (F)     (DEG/KT/KT) (MB)    (MI)  (FT/S)
NY HARB ENTRANCE NOT AVBL
4S FIRE IS       0300               63                N/A           4/ 8
20S FIRE ISLAND  0300            54 64  330/ 25/ 29 1005.8          7/ 6
23SW MTP         0300                                 N/A           7/ 6
HUDSON CANYON    0300            57 66  330/ 27/ 31 1004.0         10/ 7
EXECUTION ROCKS  0300            54 62  320/ 16/ 23   N/A
WESTERN LI SOUND 0300            54     330/ 17/ 21   N/A           2/ 3
CENTRAL LI SOUND 0200            55 63  350/ 21/ 29   N/A           3/ 4
EASTERN LI SOUND 0200            56 62   10/ 19/ 27   N/A
ROBBINS REEF     0300            53     330/ 15/ 20 1007.1
$$


>>>>>>>>>>>>>>>>>>>>>>>>>>>> KEY <<<<<<<<<<<<<<<<<<<<<<<<<<<
>                                                          <
>     SKY/WX - SKY CONDITION/PRESENT WEATHER               <
>     TMP    - TEMPERATURE IN FAHRENHEIT                   <
>     DP     - DEWPOINT IN FAHRENHEIT                      <
>     RH     - RELATIVE HUMIDITY IN PERCENT                <
>     WIND   - DIRECTION AND SPEED IN MPH                  <
>     PRES   - MEAN SEA LEVEL PRESSURE IN INCHES OF HG     <
>     WCI    - WIND CHILL INDEX                            <
>     VSB    - VISIBILITY IN MILES                         <
>     HX     - HEAT INDEX                                  <
>     TC     - TEMPERATURE IN CELSIUS                      <
>     VRB    - VARIABLE WIND DIRECTION                     <
>                                                          <
>>>>>>>>>>>>>>>>>>>>>>>>>>>> KEY <<<<<<<<<<<<<<<<<<<<<<<<<<<





USA.gov is the U.S. government's official web portal to all federal, state and local government web resources and services.